DMSP 5D-2 F11 DEB, 28349

Orbit data source: Space-Track

DMSP 5D-2 F11 DEB, 28349 is space debris in SSO originally from a launch on Thu, 28 Nov 1991 UTC launched from the Air Force Western Test Range (AFWTR). Debris objects in space refer to the collection of defunct objects orbiting the Earth. Examples of debris include non-operational satellites, rocket bodies, and fragments generated from explosions, collisions, or faulty payload assembly.

Loading next visibility...
Identifier
28349, 1991-082BN
Orbit
SSO
Country
Flag of USUS
Related business
Manufacturer
Unknown
Mission
Spacecraft
Bus & Motor
Unknown
Mass
Unknown
Launch date (UTC)
1991-11-28 (35 years ago)
Launch vehicle
Unknown
Launch site
Air Force Western Test Range (AFWTR)
Object type
Payload
Rocket body
Debris
Shape & HBR
Unknown shape, 0.1 m
Radar Cross Section
Medium (>0.1 m² and <1 m²)

Expand to show TLE details & history
Last TLE update: 23 hours ago

TLE from 23 hours ago
0 DMSP 5D-2 F11 DEB
1 28349U 91082BN  26263.52627410  .00005837  00000-0  13248-2 0  9995
2 28349  98.8604 359.5205 0045414  64.9341   2.2895 14.55803392154317
Epoch: 2026-09-20T12:37Z
TLE epoch observation values (Epoch: 2026-09-20T12:37:50.082Z)
Latitude
65.75542°
Longitude
150.50483°
Altitude
685.926 km
Speed
7.537 km/s
True Right ascension
22h 37m 31s
True Declination
65° 37' 30"
Sunlit
Object was in daylight at epoch
Visualization orbit readout
Latitude
Unknown
Longitude
Unknown
Altitude
Unknown
Speed
Unknown
Apparent Right ascension
Unknown
Apparent Declination
Unknown
Sunlit
N/A
Visualization observer readout
Local Sidereal Time
04:58:16
Azimuth
Unknown
Elevation
Unknown
Doppler factor
Unknown
Orbital elements
Apogee altitude
736.037 km
Perigee altitude
671.713 km
Semi-major axis
7,082.012 km
Eccentricity
0.00454
Inclination
98.8604°
RAAN
359.5205°
Arg. of periapsis
64.9341°
True anomaly
2.31041°
Mean anomaly
2.2895°
Eccentric anomaly
2.29994°
Mean motion
3.64173 °/min
Orbital period
98.85 mins
BSTAR
0.0013248
Loading maneuver chart data...
Computing Atmospheric mass density...

Documentation

Showing up to 5 results
|